Flag for United Kingdom Weather past 2 weeks in Lerwick (Shetland Islands), Scotland, United Kingdom

41 °F

Partly sunny.

Feels Like: 33 °F
Forecast: 41 / 42 °F
Wind: 15 mph from Northwest

Location: Lerwick

Current Time: Nov 25, 2015 at 2:30:36 PM

Latest Report: Nov 25, 2015 at 1:00 PM

Visibility: 25 mi

Pressure: 29.68 "Hg

Humidity: 65%

Dew point: 30 °F

Location of Lerwick (Shetland Islands)Location

Historic Weather in Lerwick (Shetland Islands) — Graph


Lerwick (Shetland Islands) temperature yesterday

Maximum temperature yesterday: 44 °F (at 1:00 AM)
Minimum temperature yesterday: 40 °F (at 11:00 PM)
Average temperature yesterday: 42 °F

Past Weeks' High & Low Weather Summary

High51 °F (Nov 16, 2:00 AM)100% (Nov 16, 12:00 AM)30.06 "Hg (Nov 16, 12:00 AM)
Low30 °F (Nov 21, 7:00 PM)60% (Nov 13, 1:00 AM)28.70 "Hg (Nov 17, 4:00 AM)
Average43 °F81%29.45 "Hg
* Reported Nov 10 1:00 PM — Nov 25 1:00 PM, Lerwick (Shetland Islands), Weather by CustomWeather, © 2015

Note: Actual official high and low records may vary slightly from our data, if they occured in-between our weather recording intervals... More about our weather records


Lerwick (Shetland Islands) weather history for previous 24 hours

Time TempWeatherWind HumidityBarometerVisibility
1:00 PM
Wed, Nov 25
41 °FPartly sunny.15 mph65%29.68 "Hg25 mi
12:00 PM40 °FQuite cool.18 mph71%29.66 "Hg15 mi
11:00 AM40 °FSprinkles. Overcast.12 mph80%29.65 "Hg16 mi
10:00 AM41 °FSprinkles. Overcast.15 mph76%29.62 "Hg14 mi
9:00 AM39 °FScattered clouds.12 mph77%29.59 "Hg14 mi
8:00 AM39 °FPassing clouds.13 mph78%29.57 "Hg19 mi
7:00 AM37 °FSprinkles. Passing clouds.14 mph88%29.56 "Hg15 mi
5:00 AM38 °FSprinkles. Overcast.13 mph82%29.50 "Hg17 mi
2:00 AM38 °FPassing clouds.12 mph87%29.41 "Hg16 mi
1:00 AM38 °FPassing clouds.18 mph92%29.41 "Hg10 mi
11:00 PM
Tue, Nov 24
40 °FPassing clouds.13 mph77%29.38 "Hg14 mi
9:00 PM41 °FOvercast.13 mph76%29.35 "Hg37 mi
8:00 PM41 °FSprinkles. Overcast.14 mph87%29.32 "Hg7 mi
7:00 PM41 °FPassing clouds.20 mph87%29.29 "Hg7 mi
6:00 PM42 °FOvercast.17 mph88%29.29 "Hg6 mi
5:00 PM43 °FOvercast.24 mph79%29.26 "Hg14 mi
4:00 PM42 °FPassing clouds.24 mph86%29.26 "Hg12 mi
3:00 PM42 °FPartly sunny.21 mph83%29.26 "Hg11 mi
2:00 PM43 °FScattered clouds.20 mph82%29.26 "Hg11 mi
Weather by CustomWeather, © 2015

See weather overviewHow to use our weather pages